Weather History for KJMR - August, 2014

Change the Weather History Date:

Tuesday, August 26, 2014

  Actual Average Record
Temperature  
Mean Temperature 59 °F -  
Max Temperature 68 °F 78 °F 93 °F (1948)
Min Temperature 50 °F 54 °F 30 °F (1986)
Degree Days  
Heating Degree Days 6    
Growing Degree Days 9 (Base 50)    
Moisture  
Dew Point 49 °F    
Average Humidity 71    
Maximum Humidity 94    
Minimum Humidity 52    
Precipitation  
Precipitation 0.00 in - - ()
Sea Level Pressure  
Sea Level Pressure 30.17 in    
Wind  
Wind Speed 5 mph (WNW)    
Max Wind Speed 12 mph    
Max Gust Speed 17 mph    
Visibility 10 miles    
Events Rain    
Averages and records for this station are not official NWS values.
T = Trace of Precipitation, MM = Missing Value Source: NWS Daily Summary

Daily Weather History Graph

Daily Weather History Graph

Search for Another Location

Airport or City:

Trip Planner

Search our weather history database for the weather conditions in past years. The results will help you decide how hot, cold, wet, or windy it might be!

Date:

Astronomy

Aug. 26, 2014 Rise Set
Actual Time 6:26 AM CDT 8:02 PM CDT
Civil Twilight 5:55 AM CDT 8:33 PM CDT
Nautical Twilight 5:16 AM CDT 9:11 PM CDT
Astronomical Twilight 4:35 AM CDT 9:52 PM CDT
Moon 7:33 AM CDT (8/26) 8:16 PM CDT (8/26)
Length of Visible Light 14h 38m
Length of Day
13h 35m
New Moon, 1% of the Moon is Illuminated
Aug 26
New Moon
Sep 2
First Quarter
Sep 8
Full
Sep 15
Last Quarter
Sep 24
New

Hourly Weather History & Observations

Time (CDT) Temp. Dew Point Humidity Pressure Visibility Wind Dir Wind Speed Gust Speed Precip Events Conditions
12:13 AM 59.0 °F 48.2 °F 67% 30.08 in 10.0 mi WNW 5.8 mph - N/A   Overcast
12:33 AM 59.0 °F 48.2 °F 67% 30.09 in 10.0 mi WNW 5.8 mph - N/A   Overcast
12:53 AM 59.0 °F 48.2 °F 67% 30.10 in 10.0 mi West 9.2 mph - N/A   Overcast
1:13 AM 59.0 °F 46.4 °F 63% 30.10 in 10.0 mi WNW 6.9 mph - N/A   Overcast
1:33 AM 57.2 °F 46.4 °F 67% 30.10 in 10.0 mi WNW 10.4 mph - N/A   Overcast
1:53 AM 57.2 °F 44.6 °F 63% 30.09 in 10.0 mi WNW 8.1 mph - N/A   Overcast
2:13 AM 55.4 °F 46.4 °F 72% 30.09 in 10.0 mi WNW 6.9 mph - N/A   Scattered Clouds
2:33 AM 55.4 °F 46.4 °F 72% 30.09 in 10.0 mi WNW 10.4 mph - N/A   Clear
2:53 AM 55.4 °F 46.4 °F 72% 30.10 in 10.0 mi NW 9.2 mph - N/A   Mostly Cloudy
3:13 AM 55.4 °F 46.4 °F 72% 30.09 in 10.0 mi NW 5.8 mph - N/A   Overcast
3:33 AM 55.4 °F 44.6 °F 67% 30.10 in 10.0 mi WNW 11.5 mph 17.3 mph N/A   Overcast
3:53 AM 55.4 °F 44.6 °F 67% 30.12 in 10.0 mi WNW 8.1 mph - N/A   Overcast
4:13 AM 55.4 °F 44.6 °F 67% 30.13 in 10.0 mi WNW 4.6 mph - N/A   Overcast
4:33 AM 53.6 °F 44.6 °F 72% 30.14 in 10.0 mi WNW 4.6 mph - N/A   Overcast
4:53 AM 53.6 °F 42.8 °F 67% 30.14 in 10.0 mi West 4.6 mph - N/A   Overcast
5:13 AM 53.6 °F 42.8 °F 67% 30.15 in 10.0 mi WNW 4.6 mph - N/A   Overcast
5:33 AM 53.6 °F 44.6 °F 72% 30.16 in 10.0 mi WNW 5.8 mph - N/A   Overcast
5:53 AM 51.8 °F 44.6 °F 76% 30.15 in 10.0 mi WNW 4.6 mph - N/A   Overcast
6:13 AM 50.0 °F 42.8 °F 76% 30.16 in 10.0 mi West 3.5 mph - N/A   Mostly Cloudy
6:33 AM 50.0 °F 44.6 °F 82% 30.17 in 10.0 mi WNW 3.5 mph - N/A   Scattered Clouds
6:53 AM 50.0 °F 44.6 °F 82% 30.17 in 10.0 mi WNW 3.5 mph - N/A   Clear
7:13 AM 50.0 °F 44.6 °F 82% 30.17 in 10.0 mi WNW 4.6 mph - N/A   Clear
7:33 AM 50.0 °F 44.6 °F 82% 30.19 in 10.0 mi West 5.8 mph - N/A   Scattered Clouds
7:53 AM 50.0 °F 44.6 °F 82% 30.19 in 10.0 mi WNW 4.6 mph - N/A   Scattered Clouds
8:13 AM 53.6 °F 44.6 °F 72% 30.21 in 10.0 mi West 3.5 mph - N/A   Clear
8:33 AM 53.6 °F 44.6 °F 72% 30.22 in 10.0 mi WSW 4.6 mph - N/A   Clear
8:53 AM 53.6 °F 46.4 °F 77% 30.22 in 10.0 mi WSW 4.6 mph - N/A   Clear
9:13 AM 55.4 °F 46.4 °F 72% 30.21 in 10.0 mi West 3.5 mph - N/A   Clear
9:33 AM 55.4 °F 44.6 °F 67% 30.21 in 10.0 mi WNW 3.5 mph - N/A   Clear
9:53 AM 57.2 °F 46.4 °F 67% 30.22 in 10.0 mi WNW 4.6 mph - N/A   Clear
10:13 AM 59.0 °F 46.4 °F 63% 30.22 in 10.0 mi West 4.6 mph - N/A   Scattered Clouds
10:33 AM 59.0 °F 46.4 °F 63% 30.21 in 10.0 mi NW 5.8 mph - N/A   Scattered Clouds
10:53 AM 59.0 °F 48.2 °F 67% 30.22 in 10.0 mi West 6.9 mph - N/A   Scattered Clouds
11:13 AM 60.8 °F 46.4 °F 59% 30.21 in 10.0 mi West 5.8 mph - N/A   Scattered Clouds
11:33 AM 62.6 °F 48.2 °F 59% 30.21 in 10.0 mi West 8.1 mph - N/A   Clear
11:53 AM 64.4 °F 50.0 °F 59% 30.20 in 10.0 mi NW 5.8 mph - N/A   Clear
12:13 PM 64.4 °F 50.0 °F 59% 30.20 in 10.0 mi NW 6.9 mph - N/A   Clear
12:33 PM 64.4 °F 50.0 °F 59% 30.19 in 10.0 mi Calm Calm - N/A   Clear
12:53 PM 64.4 °F 50.0 °F 59% 30.18 in 10.0 mi NW 6.9 mph - N/A   Clear
1:13 PM 64.4 °F 50.0 °F 59% 30.18 in 10.0 mi WNW 6.9 mph - N/A   Clear
1:33 PM 64.4 °F 50.0 °F 59% 30.17 in 10.0 mi North 5.8 mph - N/A   Clear
1:53 PM 66.2 °F 50.0 °F 56% 30.17 in 10.0 mi NNW 3.5 mph - N/A   Clear
2:13 PM 68.0 °F 50.0 °F 52% 30.17 in 10.0 mi NW 5.8 mph - N/A   Clear
2:33 PM 68.0 °F 50.0 °F 52% 30.17 in 10.0 mi Calm Calm - N/A   Clear
2:53 PM 68.0 °F 50.0 °F 52% 30.17 in 10.0 mi NNW 9.2 mph - N/A   Clear
3:13 PM 68.0 °F 50.0 °F 52% 30.17 in 10.0 mi Calm Calm - N/A   Clear
3:33 PM 64.4 °F 50.0 °F 59% 30.17 in 10.0 mi Calm Calm - N/A   Clear
4:13 PM 64.4 °F 50.0 °F 59% 30.17 in 10.0 mi North 4.6 mph - N/A   Clear
4:33 PM 64.4 °F 50.0 °F 59% 30.17 in 10.0 mi NNW 5.8 mph - N/A   Clear
4:53 PM 64.4 °F 51.8 °F 64% 30.16 in 10.0 mi NNW 4.6 mph - N/A   Clear
5:13 PM 64.4 °F 51.8 °F 64% 30.17 in 10.0 mi Calm Calm - N/A   Clear
5:33 PM 64.4 °F 53.6 °F 68% 30.17 in 10.0 mi NNW 5.8 mph - N/A   Clear
5:53 PM 64.4 °F 53.6 °F 68% 30.17 in 10.0 mi Calm Calm - N/A   Clear
6:13 PM 64.4 °F 53.6 °F 68% 30.17 in 10.0 mi Calm Calm - N/A   Clear
6:33 PM 64.4 °F 53.6 °F 68% 30.16 in 10.0 mi Calm Calm - N/A   Clear
6:53 PM 64.4 °F 53.6 °F 68% 30.17 in 10.0 mi North 3.5 mph - N/A   Clear
7:13 PM 60.8 °F 51.8 °F 72% 30.17 in 10.0 mi Calm Calm - N/A   Clear
7:33 PM 59.0 °F 51.8 °F 77% 30.17 in 10.0 mi Calm Calm - N/A   Clear
7:53 PM 57.2 °F 51.8 °F 82% 30.17 in 10.0 mi Calm Calm - N/A   Clear
8:13 PM 55.4 °F 51.8 °F 88% 30.17 in 10.0 mi Calm Calm - N/A   Clear
8:33 PM 55.4 °F 51.8 °F 88% 30.17 in 10.0 mi Calm Calm - N/A   Clear
8:53 PM 55.4 °F 53.6 °F 94% 30.18 in 10.0 mi Calm Calm - N/A Rain Light Rain
9:13 PM 57.2 °F 53.6 °F 88% 30.18 in 10.0 mi Calm Calm - N/A   Clear
9:33 PM 55.4 °F 53.6 °F 94% 30.18 in 10.0 mi Calm Calm - N/A   Clear
9:53 PM 55.4 °F 53.6 °F 94% 30.17 in 10.0 mi Calm Calm - N/A   Light Drizzle
10:13 PM 57.2 °F 53.6 °F 88% 30.18 in 10.0 mi Calm Calm - N/A Rain Light Rain
10:33 PM 59.0 °F 51.8 °F 77% 30.19 in 10.0 mi Calm Calm - N/A Rain Light Rain
10:53 PM 55.4 °F 51.8 °F 88% 30.19 in 10.0 mi Calm Calm - N/A Rain Light Rain
11:13 PM 55.4 °F 51.8 °F 88% 30.20 in 10.0 mi Calm Calm - N/A   Clear
11:33 PM 55.4 °F 51.8 °F 88% 30.21 in 10.0 mi Calm Calm - N/A   Scattered Clouds
11:53 PM 55.4 °F 51.8 °F 88% 30.21 in 10.0 mi Calm Calm - N/A   Scattered Clouds